[[{"header":{"parameterUnit":"m.s-1","parameterCategory":1,"la1":30.2991,"la2":30.254,"lo1":-89.0895,"lo2":-89.0444,"dy":0.0017,"dx":0.0017,"nx":28,"ny":28,"refTime":"2024-08-07T21:00:00:Z","depth":0,"parameterNumber":2,"parameterNumberName":"U-component_of_WINDS"},"data":[0,0,0,0,0,0,0,0,0,0,0,0,0,0,0,0,0,0,0,0,0,0,0,0,0,0,0,0,0,0,0,0,0,0,0,0,0,0,0,0,0,0,0,0,0,0,0,0,0,0,0,0,0,0,0,0,0,0,5.554,5.554,0,5.5547,5.5547,5.5547,5.5499,5.5498,5.5496,5.5495,5.5502,5.5503,5.5505,0,0,0,0,0,0,0,0,0,0,0,0,0,5.5488,5.5489,5.554,5.554,5.554,5.5547,5.5547,5.5547,5.5499,5.5498,5.5496,5.5494,5.5501,5.5503,5.5505,0,0,0,0,0,0,0,0,0,0,0,0,0,5.5504,5.549,5.554,5.5517,5.5515,5.5546,5.5547,5.5547,5.55,5.5497,5.5495,5.5494,5.5501,5.5503,5.5505,5.5558,0,0,5.5512,5.5513,0,0,0,0,0,0,0,0,5.5503,5.5506,5.5521,5.5519,5.5517,5.552,5.5531,5.5551,5.55,5.5506,5.5495,5.5493,5.551,5.5511,5.5516,5.5559,5.5559,5.5512,5.5513,5.5514,5.5515,0,0,0,0,0,0,0,5.5502,5.5506,5.5543,5.5521,5.5519,5.5507,5.5507,5.5534,5.5519,5.5505,5.5501,5.5503,5.5508,5.5514,5.5516,5.5559,5.5512,5.5514,5.5515,5.5516,5.5646,5.5648,0,0,0,0,0,0,5.5504,5.5505,5.5542,5.5543,5.5505,5.551,5.551,5.5521,5.5518,5.5516,5.5505,5.5501,5.5512,5.5514,5.5516,5.5578,5.5514,5.5516,5.5517,5.5644,5.5647,5.5649,0,0,0,0,0,0,5.5503,5.5508,5.5542,5.5523,5.5527,5.5513,5.5526,5.5522,5.5528,5.5518,5.5515,5.5514,5.551,5.5513,5.5548,5.5578,5.5517,5.5519,5.5642,5.5645,5.5648,5.5703,0,0,0,0,0,0,5.5502,5.5508,5.5528,5.5524,5.5528,5.5574,5.5527,5.5524,5.5532,5.5527,5.5526,5.5524,5.5509,5.5545,5.5551,5.558,5.5521,5.5639,5.5643,5.5647,5.5699,5.5708,5.5716,0,0,0,0,0,5.55,5.5543,5.5529,5.5534,5.5552,5.5576,5.5578,5.556,5.5535,5.5555,5.5548,5.5524,5.5575,5.5549,5.5555,5.5585,5.5637,5.5642,5.5647,5.5695,5.5706,5.5716,0,0,0,0,0,0,5.555,5.5542,5.5526,5.5569,5.5573,5.5568,5.5592,5.5572,5.5584,5.5579,5.5556,5.5556,5.5595,5.5594,5.5566,5.5637,5.5601,5.5608,5.5636,5.5647,5.5655,5.5654,5.5522,0,0,0,0,0,5.5566,5.5586,5.5578,5.5616,5.5619,5.5606,5.5615,5.5601,5.5605,5.5606,5.5602,5.5607,5.5624,5.5636,5.5651,5.5699,5.5698,5.5723,5.5732,5.5739,5.5744,5.577,5.578,5.5665,5.5665,5.5665,0,0,5.5599,5.5597,5.5611,5.5626,5.5628,5.5649,5.5607,5.5631,5.5647,5.561,5.5642,5.564,5.5644,5.5686,5.5705,5.5686,5.5776,5.5745,5.5751,5.5752,5.5776,5.5787,5.5796,5.5669,5.5668,5.5668,0,0,5.567,5.5671,5.5703,5.5706,5.5709,5.57,5.5708,5.5706,5.5703,5.5735,5.5708,5.5727,5.5757,5.5761,5.5767,5.5841,5.5819,5.5847,5.5892,5.5917,5.5926,5.5934,5.596,5.597,5.5853,5.5853,5.5853,0,5.571,5.5741,5.5722,5.5748,5.5755,5.5724,5.5756,5.576,5.5769,5.5775,5.5755,5.5792,5.5792,5.5835,5.5853,5.586,5.5868,5.5846,5.5926,5.5934,5.5941,5.5966,5.5976,5.5856,5.5856,5.5855,5.5855,0,5.579,5.5812,5.5838,5.5847,5.5857,5.5887,5.5872,5.5886,5.5872,5.5865,5.5899,5.5899,5.5914,5.5923,5.5909,5.5964,5.5953,5.593,5.5893,5.5956,5.5978,5.5988,5.5861,5.5859,5.5859,5.5858,0,0,5.589,5.589,5.5899,5.5903,5.5906,5.5922,5.5951,5.5965,5.5977,5.5985,5.6008,5.6035,5.6014,5.6021,5.6008,5.603,5.6089,5.6004,5.6004,5.6019,5.6149,5.6166,5.6177,5.6075,5.6077,5.6078,5.6149,0,5.5958,5.6006,5.5991,5.6039,5.6059,5.6031,5.6056,5.606,5.6055,5.6072,5.6067,5.6086,5.6057,5.6061,5.6082,5.6077,5.6114,5.6072,5.6096,5.6097,5.6094,5.6189,5.6206,5.6272,5.6158,5.6159,5.616,0,5.6044,5.6055,5.6106,5.6106,5.6114,5.6136,5.6148,5.6165,5.617,5.6165,5.6174,5.6156,5.6185,5.6149,5.6188,5.616,5.6169,5.6169,5.6171,5.6171,5.6131,5.619,5.6293,5.6302,5.6174,5.6173,5.6172,0,5.6111,5.6139,5.6173,5.6177,5.6178,5.6195,5.6196,5.6199,5.6209,5.6221,5.6227,5.6242,5.625,5.6262,5.6249,5.6225,5.629,5.6254,5.6286,5.6287,5.63,5.6299,5.6404,5.6308,5.6308,5.6308,5.6308,0,5.6188,5.622,5.6203,5.6224,5.6259,5.6242,5.6277,5.6275,5.6279,5.6299,5.6276,5.6296,5.6278,5.6296,5.6287,5.632,5.6324,5.6321,5.6318,5.6322,5.6323,5.6327,5.6321,5.6311,5.631,5.631,5.6309,0,5.6268,5.6258,5.6293,5.6291,5.6292,5.6318,5.6317,5.6336,5.6331,5.6357,5.6362,5.6353,5.6373,5.6362,5.6383,5.6377,5.642,5.6411,5.6418,5.6415,5.6448,5.6445,5.6558,5.6572,5.6469,5.647,5.6471,0,5.6317,5.6341,5.6342,5.6354,5.6357,5.6377,5.6387,5.6372,5.6384,5.6392,5.6411,5.6429,5.6443,5.6477,5.6472,5.6489,5.6479,5.6518,5.6482,5.6486,5.6479,5.6477,5.6479,5.6525,5.6526,5.6527,5.6528,0,5.6405,5.6399,5.6415,5.6429,5.6442,5.6453,5.6462,5.6473,5.6458,5.6473,5.6493,5.6504,5.6526,5.6545,5.6559,5.6561,5.6542,5.654,5.6548,5.6552,5.6555,5.6553,5.6437,5.6537,5.6536,5.6535,5.6535,5.6534,5.647,5.649,5.6495,5.6513,5.6518,5.6528,5.6546,5.6543,5.656,5.6576,5.6566,5.6591,5.6596,5.6614,5.6618,5.6637,5.6622,5.6634,5.6637,5.664,5.6644,5.6553,5.664,5.664,5.6639,5.6639,5.6639,0,5.6556,5.6558,5.6575,5.6589,5.6604,5.6586,5.6595,5.6608,5.663,5.6637,5.6651,5.6675,5.6694,5.6692,5.6708,5.6724,5.6716,5.6729,5.6727,5.6728,5.6657,5.6648,5.6735,5.6735,5.6735,5.6735,5.6735,5.6735,5.6603,5.6636,5.6631,5.6667,5.6668,5.6692,5.6699,5.6707,5.6712,5.674,5.6756,5.6754,5.6758,5.6775,5.6791,5.679,5.6797,5.6813,5.6809,5.6742,5.6733,5.6723,5.6714,5.6815,5.6815,5.6878,5.6878,5.6879]},{"header":{"parameterUnit":"m.s-1","parameterCategory":1,"la1":30.2991,"la2":30.254,"lo1":-89.0895,"lo2":-89.0444,"dy":0.0017,"dx":0.0017,"nx":28,"ny":28,"refTime":"2024-08-07T21:00:00:Z","depth":0,"parameterNumber":3,"parameterNumberName":"V-component_of_WINDS"},"data":[0,0,0,0,0,0,0,0,0,0,0,0,0,0,0,0,0,0,0,0,0,0,0,0,0,0,0,0,0,0,0,0,0,0,0,0,0,0,0,0,0,0,0,0,0,0,0,0,0,0,0,0,0,0,0,0,0,0,-1.0638,-1.0637,0,-1.0509,-1.0507,-1.0506,-1.0525,-1.0527,-1.053,-1.0532,-1.0392,-1.0386,-1.038,0,0,0,0,0,0,0,0,0,0,0,0,0,-1.0899,-1.0894,-1.0638,-1.0637,-1.0635,-1.0509,-1.0507,-1.0505,-1.0525,-1.0527,-1.053,-1.0533,-1.0394,-1.0387,-1.038,0,0,0,0,0,0,0,0,0,0,0,0,0,-1.0779,-1.0892,-1.0639,-1.063,-1.0628,-1.0509,-1.0507,-1.0505,-1.0524,-1.0528,-1.0531,-1.0534,-1.0396,-1.0388,-1.0379,-1.0259,0,0,-1.0352,-1.0349,0,0,0,0,0,0,0,0,-1.0786,-1.0769,-1.0633,-1.063,-1.0628,-1.0537,-1.0548,-1.0422,-1.0523,-1.0563,-1.0532,-1.0536,-1.0437,-1.0425,-1.0393,-1.0252,-1.0246,-1.0352,-1.0346,-1.0343,-1.034,0,0,0,0,0,0,0,-1.0794,-1.0775,-1.0587,-1.0631,-1.0628,-1.0631,-1.0618,-1.0524,-1.0483,-1.056,-1.0561,-1.0546,-1.0436,-1.0401,-1.039,-1.0244,-1.0352,-1.0344,-1.0339,-1.0335,-1.0,-0.9997,0,0,0,0,0,0,-1.0805,-1.0782,-1.0591,-1.0583,-1.0717,-1.0624,-1.0609,-1.0562,-1.0484,-1.0475,-1.0543,-1.0547,-1.0415,-1.04,-1.0385,-1.0241,-1.0343,-1.0335,-1.033,-1.0004,-1.0,-0.9996,0,0,0,0,0,0,-1.0811,-1.0788,-1.0596,-1.0683,-1.0658,-1.0616,-1.0563,-1.0558,-1.0524,-1.0471,-1.0463,-1.0516,-1.0417,-1.0397,-1.0291,-1.0236,-1.0331,-1.0323,-1.0008,-1.0003,-0.9998,-0.9951,0,0,0,0,0,0,-1.0818,-1.079,-1.0745,-1.0682,-1.0654,-1.0505,-1.056,-1.0553,-1.0509,-1.0514,-1.0443,-1.0435,-1.0418,-1.0304,-1.0282,-1.0226,-1.0316,-1.0013,-1.0006,-0.9999,-0.9957,-0.9944,-0.9933,0,0,0,0,0,-1.0828,-1.0735,-1.0742,-1.0719,-1.0597,-1.0502,-1.0486,-1.0471,-1.0505,-1.0459,-1.0425,-1.0437,-1.0246,-1.0293,-1.0269,-1.0209,-1.0016,-1.0008,-1.0,-0.9962,-0.9947,-0.9934,0,0,0,0,0,0,-1.0789,-1.0726,-1.0734,-1.0618,-1.0566,-1.0506,-1.0447,-1.0454,-1.0389,-1.0395,-1.0377,-1.036,-1.0253,-1.022,-1.0274,-1.009,-1.0136,-1.0122,-1.0115,-1.01,-1.0089,-1.0099,-1.0309,0,0,0,0,0,-1.0768,-1.0699,-1.0646,-1.0549,-1.0523,-1.049,-1.0448,-1.0441,-1.0385,-1.0362,-1.0321,-1.0264,-1.0192,-1.0144,-1.0074,-0.9952,-0.9938,-0.9899,-0.9888,-0.9878,-0.9867,-0.9802,-0.9785,-0.9968,-0.9968,-0.9969,0,0,-1.0722,-1.0679,-1.0636,-1.0541,-1.0499,-1.0427,-1.047,-1.0391,-1.0337,-1.0349,-1.0247,-1.0215,-1.0151,-1.0037,-0.9985,-1.0006,-0.9813,-0.9868,-0.9861,-0.9854,-0.9792,-0.9774,-0.9759,-0.9963,-0.9964,-0.9965,0,0,-1.0602,-1.0562,-1.0479,-1.0437,-1.0375,-1.0354,-1.0334,-1.0273,-1.0253,-1.0152,-1.016,-1.0094,-0.9969,-0.9924,-0.9884,-0.975,-0.9759,-0.9728,-0.9666,-0.9603,-0.9589,-0.9576,-0.9529,-0.9513,-0.9717,-0.9716,-0.9716,0,-1.0553,-1.0446,-1.0434,-1.0355,-1.0313,-1.0324,-1.0238,-1.0197,-1.0115,-1.0085,-1.0111,-0.9957,-0.9913,-0.9791,-0.9759,-0.9725,-0.9702,-0.9736,-0.9592,-0.9579,-0.9567,-0.9522,-0.9505,-0.9713,-0.9714,-0.9714,-0.9714,0,-1.0388,-1.0314,-1.0253,-1.0177,-1.0128,-1.0046,-1.0021,-0.9972,-0.997,-0.9946,-0.9843,-0.9792,-0.9714,-0.9684,-0.9679,-0.956,-0.9576,-0.9597,-0.9643,-0.9547,-0.9504,-0.9487,-0.9708,-0.971,-0.9711,-0.9711,0,0,-1.0239,-1.016,-1.0138,-1.0104,-1.0038,-0.9979,-0.9898,-0.9824,-0.9783,-0.9726,-0.9658,-0.9553,-0.9574,-0.9529,-0.9519,-0.9464,-0.9363,-0.9492,-0.949,-0.9471,-0.9231,-0.9216,-0.9197,-0.9369,-0.9365,-0.9363,-0.9237,0,-1.0114,-0.9973,-0.9961,-0.9833,-0.9765,-0.9776,-0.9705,-0.9656,-0.9632,-0.9569,-0.9541,-0.9468,-0.95,-0.9473,-0.9419,-0.9387,-0.9315,-0.9396,-0.9304,-0.9301,-0.9321,-0.9174,-0.9158,-0.9041,-0.922,-0.9217,-0.9215,0,-0.9948,-0.9891,-0.9757,-0.9703,-0.9674,-0.9611,-0.9543,-0.9483,-0.9428,-0.9414,-0.9366,-0.9365,-0.9281,-0.933,-0.9214,-0.927,-0.9232,-0.921,-0.9205,-0.9196,-0.9253,-0.9162,-0.9003,-0.8986,-0.9189,-0.9191,-0.9193,0,-0.9855,-0.9743,-0.965,-0.962,-0.9554,-0.951,-0.948,-0.9428,-0.9385,-0.9326,-0.9298,-0.9228,-0.9189,-0.9135,-0.9115,-0.9153,-0.9,-0.9047,-0.8986,-0.8986,-0.8953,-0.8956,-0.8787,-0.8927,-0.8928,-0.8928,-0.8928,0,-0.9717,-0.9635,-0.9607,-0.955,-0.9459,-0.9446,-0.9355,-0.9327,-0.9282,-0.9219,-0.9222,-0.9162,-0.9139,-0.9075,-0.9058,-0.8965,-0.8947,-0.8934,-0.893,-0.8934,-0.8936,-0.8909,-0.8917,-0.8923,-0.8924,-0.8925,-0.8926,0,-0.9597,-0.9575,-0.9474,-0.9421,-0.9406,-0.9341,-0.9295,-0.9239,-0.9217,-0.9137,-0.9117,-0.9082,-0.9007,-0.8982,-0.889,-0.8879,-0.8772,-0.8774,-0.8791,-0.8791,-0.8731,-0.8738,-0.854,-0.8514,-0.8671,-0.8669,-0.8668,0,-0.9511,-0.9449,-0.939,-0.935,-0.9319,-0.9252,-0.921,-0.9194,-0.9149,-0.9084,-0.9036,-0.8963,-0.8903,-0.8783,-0.8748,-0.8679,-0.868,-0.8616,-0.867,-0.8676,-0.8681,-0.8685,-0.868,-0.8606,-0.8604,-0.8603,-0.8602,0,-0.9361,-0.9354,-0.9293,-0.9229,-0.9179,-0.9127,-0.9077,-0.9043,-0.902,-0.8969,-0.8894,-0.8849,-0.8757,-0.8685,-0.8614,-0.8582,-0.8588,-0.8586,-0.8568,-0.8571,-0.8584,-0.8578,-0.8765,-0.859,-0.8591,-0.8592,-0.8593,-0.8593,-0.9256,-0.9202,-0.9153,-0.9086,-0.9048,-0.9001,-0.8948,-0.892,-0.8858,-0.8785,-0.8779,-0.8698,-0.8646,-0.8553,-0.8517,-0.8454,-0.8472,-0.8446,-0.8439,-0.8433,-0.843,-0.8594,-0.844,-0.8441,-0.8441,-0.8441,-0.8442,0,-0.9107,-0.9077,-0.9015,-0.8947,-0.8894,-0.8907,-0.8853,-0.8808,-0.8738,-0.869,-0.8633,-0.8548,-0.8478,-0.8438,-0.8368,-0.8325,-0.8326,-0.8307,-0.8311,-0.8303,-0.8417,-0.844,-0.8308,-0.8308,-0.8308,-0.8308,-0.8308,-0.8308,-0.9023,-0.8934,-0.8922,-0.8813,-0.8783,-0.8707,-0.8675,-0.8632,-0.8594,-0.85,-0.8443,-0.8419,-0.8375,-0.8302,-0.8239,-0.8229,-0.8203,-0.8183,-0.8175,-0.8281,-0.8295,-0.8308,-0.833,-0.8177,-0.8177,-0.8067,-0.8066,-0.8065]}]]